| time (UTC) | temp F | wind direction | speed knots | gust knots | rain 1hr in | rain 24hr in | rain mn in | humidity % | barometer mb |
| 20260508133023 | 52 | 171 | 0.0 | 0.0 | 0.00 | 0.00 | 0.00 | 74 | 1009.6 |
| 20260508132506 | 52 | 171 | 0.0 | 0.0 | 0.00 | 0.00 | 0.00 | 74 | 1009.5 |
| 20260508132010 | 52 | 171 | 0.0 | 0.0 | 0.00 | 0.00 | 0.00 | 72 | 1009.6 |
| 20260508131520 | 52 | 171 | 0.0 | 0.0 | 0.00 | 0.00 | 0.00 | 71 | 1009.5 |
| 20260508131011 | 52 | 171 | 0.0 | 0.0 | 0.00 | 0.00 | 0.00 | 71 | 1009.4 |
| 20260508130512 | 52 | 171 | 0.0 | 0.0 | 0.00 | 0.00 | 0.00 | 68 | 1009.2 |
| 20260508130021 | 51 | 171 | 0.0 | 0.0 | 0.00 | 0.00 | 0.00 | 69 | 1009.2 |
| 20260508125512 | 51 | 171 | 0.0 | 0.0 | 0.00 | 0.00 | 0.00 | 69 | 1009.1 |
| 20260508125006 | 51 | 171 | 0.0 | 0.0 | 0.00 | 0.00 | 0.00 | 68 | 1009.0 |
| 20260508124516 | 51 | 171 | 0.0 | 0.0 | 0.00 | 0.00 | 0.00 | 69 | 1009.0 |
| 20260508124012 | 51 | 171 | 0.0 | 0.0 | 0.00 | 0.00 | 0.00 | 67 | 1009.0 |
| 20260508123509 | 51 | 171 | 0.0 | 0.0 | 0.00 | 0.00 | 0.00 | 68 | 1009.1 |
| 20260508123022 | 51 | 171 | 0.0 | 0.0 | 0.00 | 0.00 | 0.00 | 68 | 1009.1 |
| 20260508122510 | 51 | 172 | 0.0 | 0.0 | 0.00 | 0.00 | 0.00 | 67 | 1009.1 |
| 20260508122011 | 51 | 172 | 0.0 | 0.0 | 0.00 | 0.00 | 0.00 | 66 | 1009.1 |
| 20260508121519 | 51 | 172 | 0.0 | 0.0 | 0.00 | 0.00 | 0.00 | 67 | 1009.0 |
| 20260508121011 | 51 | 172 | 0.0 | 2.6 | 0.00 | 0.00 | 0.00 | 67 | 1009.0 |
| 20260508120503 | 51 | 172 | 0.9 | 2.6 | 0.00 | 0.00 | 0.00 | 66 | 1009.1 |
| 20260508120022 | 51 | 165 | 0.9 | 2.6 | 0.00 | 0.00 | 0.00 | 66 | 1009.1 |
| 20260508115508 | 51 | 181 | 0.9 | 2.6 | 0.00 | 0.00 | 0.00 | 63 | 1009.2 |
| 20260508115003 | 51 | 134 | 0.0 | 0.0 | 0.00 | 0.00 | 0.00 | 62 | 1009.1 |
| 20260508114508 | 50 | 133 | 0.0 | 0.0 | 0.00 | 0.00 | 0.00 | 64 | 1009.4 |
| 20260508114009 | 50 | 133 | 0.0 | 0.0 | 0.00 | 0.00 | 0.00 | 64 | 1009.4 |
| 20260508113507 | 50 | 134 | 0.0 | 0.0 | 0.00 | 0.00 | 0.00 | 64 | 1009.4 |
| 20260508113006 | 49 | 134 | 0.0 | 0.0 | 0.00 | 0.00 | 0.00 | 65 | 1009.2 |
| 20260508112507 | 50 | 134 | 0.0 | 0.0 | 0.00 | 0.00 | 0.00 | 65 | 1009.1 |
| 20260508112005 | 50 | 134 | 0.0 | 0.0 | 0.00 | 0.00 | 0.00 | 63 | 1009.1 |
| 20260508111508 | 50 | 134 | 0.0 | 0.0 | 0.00 | 0.00 | 0.00 | 61 | 1009.1 |
| 20260508111006 | 50 | 134 | 0.0 | 0.0 | 0.00 | 0.00 | 0.00 | 63 | 1009.2 |
| 20260508110504 | 50 | 134 | 0.0 | 0.0 | 0.00 | 0.00 | 0.00 | 62 | 1009.2 |
| 20260508110019 | 50 | 133 | 0.0 | 0.0 | 0.00 | 0.00 | 0.00 | 58 | 1009.1 |
| 20260508105503 | 49 | 133 | 0.0 | 0.0 | 0.00 | 0.00 | 0.00 | 59 | 1009.1 |
| 20260508105005 | 49 | 134 | 0.0 | 0.0 | 0.00 | 0.00 | 0.00 | 65 | 1009.2 |
| 20260508104520 | 49 | 134 | 0.0 | 0.0 | 0.00 | 0.00 | 0.00 | 65 | 1009.3 |
| 20260508104003 | 50 | 134 | 0.0 | 0.0 | 0.00 | 0.00 | 0.00 | 65 | 1009.5 |
| 20260508103503 | 50 | 134 | 0.0 | 0.0 | 0.00 | 0.00 | 0.00 | 61 | 1009.3 |
| 20260508103023 | 51 | 134 | 0.0 | 0.0 | 0.00 | 0.00 | 0.00 | 62 | 1009.2 |
| 20260508102505 | 51 | 134 | 0.0 | 0.0 | 0.00 | 0.00 | 0.00 | 60 | 1009.0 |
| 20260508102005 | 51 | 133 | 0.0 | 0.0 | 0.00 | 0.00 | 0.00 | 57 | 1009.0 |
| 20260508101504 | 50 | 133 | 0.0 | 0.0 | 0.00 | 0.00 | 0.00 | 57 | 1009.4 |
| 20260508101006 | 49 | 134 | 0.0 | 0.0 | 0.00 | 0.00 | 0.00 | 62 | 1009.7 |
| 20260508100505 | 50 | 134 | 0.0 | 0.0 | 0.00 | 0.00 | 0.00 | 62 | 1009.8 |
| 20260508100013 | 49 | 134 | 0.0 | 0.0 | 0.00 | 0.00 | 0.00 | 66 | 1009.9 |
| 20260508095506 | 50 | 133 | 0.0 | 1.7 | 0.00 | 0.00 | 0.00 | 65 | 1009.9 |
| 20260508095007 | 51 | 134 | 0.0 | 1.7 | 0.00 | 0.00 | 0.00 | 60 | 1009.6 |
| 20260508094507 | 52 | 134 | 0.0 | 0.9 | 0.00 | 0.00 | 0.00 | 57 | 1009.5 |
| 20260508094007 | 52 | 134 | 0.0 | 0.9 | 0.00 | 0.00 | 0.00 | 52 | 1009.5 |
| 20260508093507 | 51 | 134 | 0.0 | 0.0 | 0.00 | 0.00 | 0.00 | 55 | 1009.6 |
| 20260508093003 | 51 | 134 | 0.0 | 0.0 | 0.00 | 0.00 | 0.00 | 58 | 1009.6 |
| 20260508092506 | 51 | 134 | 0.0 | 0.0 | 0.00 | 0.00 | 0.00 | 61 | 1009.7 |
| 20260508092007 | 52 | 134 | 0.0 | 0.0 | 0.00 | 0.00 | 0.00 | 61 | 1009.7 |
| 20260508091523 | 52 | 134 | 0.0 | 0.0 | 0.00 | 0.00 | 0.00 | 62 | 1009.7 |
| 20260508091004 | 52 | 134 | 0.0 | 0.0 | 0.00 | 0.00 | 0.00 | 59 | 1009.6 |
| 20260508090506 | 52 | 134 | 0.0 | 0.0 | 0.00 | 0.00 | 0.00 | 59 | 1009.7 |
| 20260508090008 | 52 | 134 | 0.0 | 0.0 | 0.00 | 0.00 | 0.00 | 60 | 1009.7 |
| 20260508085507 | 52 | 134 | 0.0 | 0.9 | 0.00 | 0.00 | 0.00 | 61 | 1009.8 |
| 20260508085006 | 52 | 134 | 0.0 | 0.9 | 0.00 | 0.00 | 0.00 | 62 | 1009.6 |
| 20260508084511 | 54 | 134 | 0.0 | 1.7 | 0.00 | 0.00 | 0.00 | 54 | 1009.7 |
| 20260508084006 | 54 | 134 | 0.0 | 1.7 | 0.00 | 0.00 | 0.00 | 54 | 1009.9 |
| 20260508083505 | 54 | 134 | 0.9 | 1.7 | 0.00 | 0.00 | 0.00 | 54 | 1009.8 |
| 20260508083018 | 55 | 132 | 0.9 | 1.7 | 0.00 | 0.00 | 0.00 | 56 | 1009.6 |
| 20260508082504 | 55 | 132 | 0.0 | 0.9 | 0.00 | 0.00 | 0.00 | 49 | 1009.6 |
| 20260508082011 | 54 | 131 | 0.0 | 0.9 | 0.00 | 0.00 | 0.00 | 49 | 1009.5 |
| 20260508081509 | 53 | 131 | 0.0 | 0.9 | 0.00 | 0.00 | 0.00 | 59 | 1009.5 |
| 20260508081008 | 53 | 131 | 0.0 | 0.9 | 0.00 | 0.00 | 0.00 | 60 | 1009.6 |
| 20260508080510 | 53 | 131 | 0.0 | 0.0 | 0.00 | 0.00 | 0.00 | 61 | 1009.8 |
| 20260508080010 | 54 | 131 | 0.0 | 1.7 | 0.00 | 0.00 | 0.00 | 59 | 1009.9 |
| 20260508075506 | 54 | 131 | 0.0 | 1.7 | 0.00 | 0.00 | 0.00 | 54 | 1009.9 |
| 20260508075006 | 55 | 242 | 0.0 | 2.6 | 0.00 | 0.00 | 0.00 | 54 | 1010.1 |
| 20260508074512 | 55 | 242 | 0.0 | 2.6 | 0.00 | 0.00 | 0.00 | 52 | 1009.9 |
| 20260508074008 | 55 | 296 | 0.0 | 0.0 | 0.00 | 0.00 | 0.00 | 53 | 1010.0 |
| 20260508073508 | 55 | 296 | 0.0 | 0.9 | 0.00 | 0.00 | 0.00 | 52 | 1009.9 |
| 20260508073014 | 54 | 296 | 0.0 | 2.6 | 0.00 | 0.00 | 0.00 | 54 | 1009.9 |
| 20260508072506 | 54 | 296 | 0.0 | 2.6 | 0.00 | 0.00 | 0.00 | 59 | 1009.8 |
| 20260508072006 | 53 | 342 | 0.0 | 0.0 | 0.00 | 0.00 | 0.00 | 57 | 1009.5 |
| 20260508071506 | 53 | 342 | 0.0 | 0.0 | 0.00 | 0.00 | 0.00 | 58 | 1009.6 |
| 20260508071004 | 53 | 342 | 0.0 | 0.0 | 0.00 | 0.00 | 0.00 | 58 | 1009.6 |
| 20260508070507 | 53 | 342 | 0.0 | 0.0 | 0.00 | 0.00 | 0.00 | 59 | 1009.7 |
| 20260508070004 | 53 | 342 | 0.0 | 0.0 | 0.00 | 0.00 | 0.00 | 57 | 1009.9 |
| 20260508065504 | 53 | 342 | 0.0 | 0.0 | 0.00 | 0.00 | 0.00 | 58 | 1009.9 |
| 20260508065003 | 53 | 342 | 0.0 | 0.0 | 0.00 | 0.00 | 0.00 | 60 | 1010.0 |
| 20260508064503 | 53 | 342 | 0.0 | 0.0 | 0.00 | 0.00 | 0.00 | 62 | 1009.9 |
| 20260508064003 | 54 | 342 | 0.0 | 0.0 | 0.00 | 0.00 | 0.00 | 60 | 1009.9 |
| 20260508063504 | 54 | 342 | 0.0 | 0.0 | 0.00 | 0.00 | 0.00 | 51 | 1010.0 |
| 20260508063010 | 55 | 342 | 0.0 | 0.0 | 0.00 | 0.00 | 0.00 | 50 | 1010.0 |
| 20260508062506 | 55 | 342 | 0.0 | 0.0 | 0.00 | 0.00 | 0.00 | 53 | 1010.1 |
| 20260508062008 | 55 | 342 | 0.0 | 0.0 | 0.00 | 0.00 | 0.00 | 50 | 1010.1 |
| 20260508061508 | 55 | 342 | 0.0 | 0.0 | 0.00 | 0.00 | 0.00 | 53 | 1010.1 |
| 20260508061003 | 55 | 342 | 0.0 | 0.0 | 0.00 | 0.00 | 0.00 | 51 | 1010.0 |
| 20260508060510 | 54 | 342 | 0.0 | 0.0 | 0.00 | 0.00 | 0.00 | 52 | 1009.8 |
| 20260508060007 | 54 | 342 | 0.0 | 0.0 | 0.00 | 0.00 | 0.00 | 56 | 1009.8 |
| 20260508055502 | 54 | 342 | 0.0 | 0.0 | 0.00 | 0.00 | 0.00 | 57 | 1009.7 |
| 20260508055007 | 54 | 342 | 0.0 | 0.0 | 0.00 | 0.00 | 0.00 | 53 | 1009.8 |
| 20260508054510 | 54 | 342 | 0.0 | 0.0 | 0.00 | 0.00 | 0.00 | 57 | 1009.9 |
| 20260508054004 | 54 | 342 | 0.0 | 0.0 | 0.00 | 0.00 | 0.00 | 55 | 1009.8 |
| 20260508053503 | 54 | 342 | 0.0 | 0.0 | 0.00 | 0.00 | 0.00 | 50 | 1009.8 |
| 20260508053006 | 53 | 342 | 0.0 | 0.0 | 0.00 | 0.00 | 0.00 | 54 | 1009.8 |
| 20260508052504 | 53 | 342 | 0.0 | 0.0 | 0.00 | 0.00 | 0.00 | 58 | 1009.7 |
| 20260508052008 | 53 | 342 | 0.0 | 0.0 | 0.00 | 0.00 | 0.00 | 59 | 1009.8 |
| 20260508051511 | 53 | 342 | 0.0 | 0.0 | 0.00 | 0.00 | 0.00 | 57 | 1009.8 |
| 20260508051007 | 53 | 342 | 0.0 | 0.0 | 0.00 | 0.00 | 0.00 | 58 | 1009.8 |
| 20260508050503 | 53 | 342 | 0.0 | 0.0 | 0.00 | 0.00 | 0.00 | 55 | 1009.9 |
| 20260508050015 | 53 | 342 | 0.0 | 0.0 | 0.00 | 0.00 | 0.00 | 56 | 1009.9 |
| 20260508045508 | 54 | 342 | 0.0 | 0.0 | 0.00 | 0.00 | 0.00 | 52 | 1009.9 |
| 20260508045004 | 54 | 342 | 0.0 | 0.0 | 0.00 | 0.00 | 0.00 | 50 | 1010.0 |
| 20260508044513 | 54 | 342 | 0.0 | 0.0 | 0.00 | 0.00 | 0.00 | 52 | 1010.1 |
| 20260508044007 | 54 | 342 | 0.0 | 0.0 | 0.00 | 0.00 | 0.00 | 52 | 1010.1 |
| 20260508043503 | 54 | 342 | 0.0 | 0.0 | 0.00 | 0.00 | 0.00 | 52 | 1010.2 |
| 20260508043017 | 53 | 342 | 0.0 | 0.0 | 0.00 | 0.00 | 0.00 | 54 | 1010.1 |
| 20260508042504 | 53 | 342 | 0.0 | 0.0 | 0.00 | 0.00 | 0.00 | 50 | 1010.1 |
| 20260508042007 | 53 | 342 | 0.0 | 0.0 | 0.00 | 0.00 | 0.00 | 49 | 1010.1 |
| 20260508041516 | 53 | 342 | 0.0 | 0.0 | 0.00 | 0.00 | 0.00 | 50 | 1010.1 |
| 20260508041003 | 53 | 342 | 0.0 | 0.0 | 0.00 | 0.00 | 0.00 | 48 | 1010.1 |
| 20260508040507 | 53 | 342 | 0.0 | 0.0 | 0.00 | 0.00 | 0.00 | 51 | 1010.2 |
| 20260508040019 | 54 | 342 | 0.0 | 0.0 | 0.00 | 0.00 | 0.00 | 51 | 1010.2 |
| 20260508035505 | 54 | 342 | 0.0 | 0.0 | 0.00 | 0.00 | 0.00 | 50 | 1010.2 |
| 20260508035006 | 55 | 342 | 0.0 | 0.0 | 0.00 | 0.00 | 0.00 | 46 | 1010.0 |
| 20260508034511 | 55 | 342 | 0.0 | 0.0 | 0.00 | 0.00 | 0.00 | 45 | 1009.9 |
| 20260508034007 | 55 | 342 | 0.0 | 0.0 | 0.00 | 0.00 | 0.00 | 47 | 1009.9 |
| 20260508033506 | 55 | 342 | 0.0 | 0.0 | 0.00 | 0.00 | 0.00 | 46 | 1009.9 |
| 20260508033010 | 56 | 342 | 0.0 | 0.0 | 0.00 | 0.00 | 0.00 | 44 | 1010.0 |
| 20260508032508 | 56 | 342 | 0.0 | 0.0 | 0.00 | 0.00 | 0.00 | 43 | 1010.1 |
| 20260508032004 | 56 | 342 | 0.0 | 0.0 | 0.00 | 0.00 | 0.00 | 45 | 1010.1 |
| 20260508031515 | 56 | 342 | 0.0 | 0.0 | 0.00 | 0.00 | 0.00 | 44 | 1010.1 |
| 20260508031003 | 57 | 342 | 0.0 | 0.0 | 0.00 | 0.00 | 0.00 | 43 | 1010.1 |
| 20260508030503 | 57 | 342 | 0.0 | 0.0 | 0.00 | 0.00 | 0.00 | 43 | 1010.1 |
| 20260508030013 | 57 | 342 | 0.0 | 0.0 | 0.00 | 0.00 | 0.00 | 44 | 1010.0 |
| 20260508025510 | 57 | 342 | 0.0 | 0.0 | 0.00 | 0.00 | 0.00 | 41 | 1009.9 |
| 20260508025009 | 57 | 342 | 0.0 | 0.0 | 0.00 | 0.00 | 0.00 | 41 | 1009.9 |
| 20260508024516 | 58 | 342 | 0.0 | 0.0 | 0.00 | 0.00 | 0.00 | 40 | 1009.9 |
| 20260508024007 | 58 | 342 | 0.0 | 0.0 | 0.00 | 0.00 | 0.00 | 39 | 1009.9 |
| 20260508023507 | 58 | 342 | 0.0 | 0.0 | 0.00 | 0.00 | 0.00 | 38 | 1009.9 |
| 20260508023021 | 59 | 342 | 0.0 | 0.0 | 0.00 | 0.00 | 0.00 | 39 | 1009.9 |
| 20260508022505 | 58 | 342 | 0.0 | 0.0 | 0.00 | 0.00 | 0.00 | 39 | 1009.9 |
| 20260508022006 | 58 | 342 | 0.0 | 0.0 | 0.00 | 0.00 | 0.00 | 41 | 1009.8 |
| 20260508021520 | 59 | 342 | 0.0 | 0.0 | 0.00 | 0.00 | 0.00 | 42 | 1009.7 |
| 20260508021009 | 59 | 342 | 0.0 | 0.0 | 0.00 | 0.00 | 0.00 | 40 | 1009.6 |
| 20260508020506 | 59 | 342 | 0.0 | 0.0 | 0.00 | 0.00 | 0.00 | 42 | 1009.6 |
| 20260508020022 | 59 | 342 | 0.0 | 0.0 | 0.00 | 0.00 | 0.00 | 39 | 1009.4 |
| 20260508015506 | 60 | 342 | 0.0 | 0.0 | 0.00 | 0.00 | 0.00 | 42 | 1009.4 |
| 20260508015006 | 60 | 342 | 0.0 | 0.0 | 0.00 | 0.00 | 0.00 | 40 | 1009.4 |
| 20260508014515 | 60 | 342 | 0.0 | 0.0 | 0.00 | 0.00 | 0.00 | 38 | 1009.4 |
| 20260508014009 | 61 | 342 | 0.0 | 0.0 | 0.00 | 0.00 | 0.00 | 37 | 1009.4 |
| 20260508013511 | 62 | 342 | 0.0 | 0.0 | 0.00 | 0.00 | 0.00 | 37 | 1009.4 |
| 20260508013013 | 63 | 342 | 0.0 | 0.9 | 0.00 | 0.00 | 0.00 | 35 | 1009.4 |
| 20260508012508 | 64 | 342 | 0.0 | 0.9 | 0.00 | 0.00 | 0.00 | 33 | 1009.2 |
| 20260508012010 | 64 | 342 | 0.0 | 4.3 | 0.00 | 0.00 | 0.00 | 33 | 1009.1 |
| 20260508011514 | 65 | 342 | 0.9 | 4.3 | 0.00 | 0.00 | 0.00 | 30 | 1009.0 |
| 20260508011006 | 65 | 342 | 1.7 | 4.3 | 0.00 | 0.00 | 0.00 | 30 | 1008.9 |
| 20260508010507 | 65 | 329 | 0.9 | 2.6 | 0.00 | 0.00 | 0.00 | 31 | 1008.9 |
| 20260508010032 | 66 | 331 | 0.0 | 2.6 | 0.00 | 0.00 | 0.00 | 32 | 1008.8 |
| 20260508005507 | 66 | 352 | 0.0 | 3.5 | 0.00 | 0.00 | 0.00 | 32 | 1008.8 |
| 20260508005006 | 66 | 355 | 0.9 | 4.3 | 0.00 | 0.00 | 0.00 | 30 | 1008.8 |
| 20260508004524 | 66 | 339 | 0.0 | 4.3 | 0.00 | 0.00 | 0.00 | 31 | 1008.7 |
| 20260508004008 | 67 | 323 | 0.9 | 2.6 | 0.00 | 0.00 | 0.00 | 32 | 1008.7 |
| 20260508003506 | 67 | 326 | 0.9 | 7.0 | 0.00 | 0.00 | 0.00 | 29 | 1008.7 |
| 20260508003021 | 67 | 304 | 1.7 | 7.8 | 0.00 | 0.00 | 0.00 | 28 | 1008.6 |
| 20260508002509 | 67 | 339 | 3.5 | 7.8 | 0.00 | 0.00 | 0.00 | 29 | 1008.6 |
| 20260508002011 | 68 | 306 | 2.6 | 5.2 | 0.00 | 0.00 | 0.00 | 29 | 1008.5 |
| 20260508001521 | 68 | 306 | 2.6 | 5.2 | 0.00 | 0.00 | 0.00 | 30 | 1008.6 |
| 20260508001007 | 68 | 342 | 1.7 | 5.2 | 0.00 | 0.00 | 0.00 | 30 | 1008.5 |
| 20260508000508 | 68 | 335 | 1.7 | 4.3 | 0.00 | 0.00 | 0.00 | 31 | 1008.5 |
| 20260508000017 | 69 | 355 | 1.7 | 7.8 | 0.00 | 0.00 | 0.00 | 28 | 1008.4 |
| 20260507235515 | 69 | 304 | 0.9 | 7.8 | 0.00 | 0.00 | 0.00 | 29 | 1008.4 |
| 20260507235006 | 69 | 318 | 2.6 | 8.7 | 0.00 | 0.00 | 0.00 | 29 | 1008.5 |
| 20260507234515 | 69 | 346 | 2.6 | 8.7 | 0.00 | 0.00 | 0.00 | 28 | 1008.5 |
| 20260507234008 | 70 | 305 | 1.7 | 7.8 | 0.00 | 0.00 | 0.00 | 29 | 1008.4 |
| 20260507233508 | 70 | 261 | 3.5 | 7.8 | 0.00 | 0.00 | 0.00 | 27 | 1008.5 |
| 20260507233027 | 71 | 5 | 2.6 | 7.8 | 0.00 | 0.00 | 0.00 | 26 | 1008.4 |
| 20260507232506 | 71 | 314 | 3.5 | 7.0 | 0.00 | 0.00 | 0.00 | 27 | 1008.4 |
| 20260507232007 | 71 | 342 | 1.7 | 7.8 | 0.00 | 0.00 | 0.00 | 24 | 1008.4 |
| 20260507231520 | 71 | 325 | 0.9 | 7.8 | 0.00 | 0.00 | 0.00 | 28 | 1008.3 |
| 20260507231009 | 72 | 312 | 0.9 | 7.8 | 0.00 | 0.00 | 0.00 | 27 | 1008.4 |
| 20260507230507 | 72 | 308 | 2.6 | 7.0 | 0.00 | 0.00 | 0.00 | 27 | 1008.3 |
| 20260507230023 | 72 | 315 | 2.6 | 7.0 | 0.00 | 0.00 | 0.00 | 28 | 1008.3 |
| 20260507225510 | 72 | 301 | 1.7 | 7.0 | 0.00 | 0.00 | 0.00 | 26 | 1008.3 |
| 20260507225007 | 72 | 326 | 0.9 | 7.8 | 0.00 | 0.00 | 0.00 | 29 | 1008.2 |
| 20260507224527 | 72 | 310 | 2.6 | 7.8 | 0.00 | 0.00 | 0.00 | 30 | 1008.3 |
| 20260507224007 | 72 | 314 | 1.7 | 7.0 | 0.00 | 0.00 | 0.00 | 29 | 1008.3 |
| 20260507223510 | 72 | 323 | 0.0 | 7.0 | 0.00 | 0.00 | 0.00 | 28 | 1008.3 |
| 20260507223027 | 72 | 327 | 2.6 | 7.8 | 0.00 | 0.00 | 0.00 | 28 | 1008.5 |
| 20260507222509 | 72 | 294 | 2.6 | 7.8 | 0.00 | 0.00 | 0.00 | 29 | 1008.5 |
| 20260507222007 | 72 | 311 | 3.5 | 7.8 | 0.00 | 0.00 | 0.00 | 27 | 1008.5 |
| 20260507221503 | 72 | 319 | 3.5 | 7.8 | 0.00 | 0.00 | 0.00 | 29 | 1008.5 |
| 20260507221002 | 73 | 331 | 2.6 | 7.0 | 0.00 | 0.00 | 0.00 | 27 | 1008.5 |
| 20260507220502 | 72 | 275 | 0.9 | 9.6 | 0.00 | 0.00 | 0.00 | 31 | 1008.6 |
| 20260507220018 | 72 | 317 | 2.6 | 9.6 | 0.00 | 0.00 | 0.00 | 29 | 1008.4 |
| 20260507215503 | 72 | 319 | 5.2 | 9.6 | 0.00 | 0.00 | 0.00 | 28 | 1008.5 |
| 20260507215003 | 73 | 309 | 2.6 | 6.1 | 0.00 | 0.00 | 0.00 | 28 | 1008.6 |
| 20260507214510 | 72 | 360 | 1.7 | 7.8 | 0.00 | 0.00 | 0.00 | 31 | 1008.5 |
| 20260507214003 | 72 | 319 | 1.7 | 7.8 | 0.00 | 0.00 | 0.00 | 30 | 1008.6 |
| 20260507213503 | 72 | 221 | 0.9 | 8.7 | 0.00 | 0.00 | 0.00 | 27 | 1008.7 |
| 20260507213009 | 72 | 339 | 3.5 | 8.7 | 0.00 | 0.00 | 0.00 | 29 | 1008.7 |
| 20260507212505 | 72 | 340 | 1.7 | 7.8 | 0.00 | 0.00 | 0.00 | 30 | 1008.7 |
| 20260507212003 | 72 | 217 | 2.6 | 7.8 | 0.00 | 0.00 | 0.00 | 28 | 1008.7 |
| 20260507211512 | 72 | 346 | 2.6 | 12.2 | 0.00 | 0.00 | 0.00 | 27 | 1008.6 |
| 20260507211005 | 73 | 315 | 5.2 | 12.2 | 0.00 | 0.00 | 0.00 | 28 | 1008.8 |
| 20260507210514 | 73 | 321 | 2.6 | 7.8 | 0.00 | 0.00 | 0.00 | 28 | 1008.8 |
| 20260507210003 | 73 | 346 | 2.6 | 9.6 | 0.00 | 0.00 | 0.00 | 30 | 1008.7 |
| 20260507205505 | 72 | 314 | 2.6 | 9.6 | 0.00 | 0.00 | 0.00 | 28 | 1008.8 |
| 20260507205007 | 72 | 340 | 5.2 | 8.7 | 0.00 | 0.00 | 0.00 | 28 | 1008.9 |
| 20260507204508 | 73 | 316 | 5.2 | 8.7 | 0.00 | 0.00 | 0.00 | 32 | 1008.9 |
| 20260507204003 | 72 | 11 | 2.6 | 10.4 | 0.00 | 0.00 | 0.00 | 30 | 1008.9 |
| 20260507203503 | 72 | 341 | 3.5 | 10.4 | 0.00 | 0.00 | 0.00 | 30 | 1009.1 |
| 20260507203007 | 72 | 340 | 1.7 | 8.7 | 0.00 | 0.00 | 0.00 | 32 | 1009.0 |
| 20260507202504 | 72 | 296 | 2.6 | 9.6 | 0.00 | 0.00 | 0.00 | 28 | 1009.1 |
| 20260507202004 | 73 | 302 | 3.5 | 9.6 | 0.00 | 0.00 | 0.00 | 28 | 1009.1 |
| 20260507201505 | 73 | 351 | 0.9 | 6.1 | 0.00 | 0.00 | 0.00 | 29 | 1009.1 |
| 20260507201004 | 73 | 296 | 0.9 | 7.0 | 0.00 | 0.00 | 0.00 | 28 | 1009.2 |
| 20260507200504 | 72 | 263 | 0.9 | 11.3 | 0.00 | 0.00 | 0.00 | 31 | 1009.1 |
| 20260507200014 | 73 | 338 | 2.6 | 11.3 | 0.00 | 0.00 | 0.00 | 32 | 1009.2 |
| 20260507195507 | 73 | 302 | 1.7 | 7.8 | 0.00 | 0.00 | 0.00 | 31 | 1009.0 |
| 20260507195003 | 72 | 311 | 3.5 | 7.8 | 0.00 | 0.00 | 0.00 | 32 | 1009.0 |
| 20260507194510 | 72 | 336 | 2.6 | 7.8 | 0.00 | 0.00 | 0.00 | 34 | 1009.0 |
| 20260507194007 | 72 | 346 | 1.7 | 8.7 | 0.00 | 0.00 | 0.00 | 29 | 1009.0 |
| 20260507193509 | 73 | 355 | 0.0 | 9.6 | 0.00 | 0.00 | 0.00 | 37 | 1009.0 |
| 20260507193008 | 73 | 338 | 1.7 | 9.6 | 0.00 | 0.00 | 0.00 | 36 | 1009.0 |
| 20260507192503 | 72 | 321 | 1.7 | 9.6 | 0.00 | 0.00 | 0.00 | 36 | 1009.0 |
| 20260507192003 | 72 | 319 | 0.9 | 9.6 | 0.00 | 0.00 | 0.00 | 37 | 1009.0 |
| 20260507191509 | 73 | 240 | 2.6 | 8.7 | 0.00 | 0.00 | 0.00 | 35 | 1009.0 |
| 20260507191003 | 72 | 322 | 3.5 | 8.7 | 0.00 | 0.00 | 0.00 | 35 | 1009.0 |
| 20260507190508 | 71 | 238 | 1.7 | 4.3 | 0.00 | 0.00 | 0.00 | 37 | 1009.1 |
| 20260507190014 | 71 | 309 | 1.7 | 7.8 | 0.00 | 0.00 | 0.00 | 34 | 1009.0 |
| 20260507185503 | 70 | 69 | 1.7 | 7.8 | 0.00 | 0.00 | 0.00 | 35 | 1009.1 |
| 20260507185006 | 71 | 307 | 2.6 | 8.7 | 0.00 | 0.00 | 0.00 | 37 | 1009.2 |
| 20260507184511 | 71 | 34 | 2.6 | 10.4 | 0.00 | 0.00 | 0.00 | 38 | 1009.2 |
| 20260507184007 | 71 | 298 | 2.6 | 10.4 | 0.00 | 0.00 | 0.00 | 36 | 1009.2 |
| 20260507183502 | 71 | 323 | 2.6 | 10.4 | 0.00 | 0.00 | 0.00 | 35 | 1009.3 |
| 20260507183008 | 70 | 202 | 1.7 | 10.4 | 0.00 | 0.00 | 0.00 | 34 | 1009.4 |
| 20260507182508 | 71 | 301 | 2.6 | 7.0 | 0.00 | 0.00 | 0.00 | 34 | 1009.4 |
| 20260507182011 | 70 | 302 | 1.7 | 7.0 | 0.00 | 0.00 | 0.00 | 34 | 1009.5 |
| 20260507181515 | 70 | 257 | 1.7 | 9.6 | 0.00 | 0.00 | 0.00 | 41 | 1009.7 |
| 20260507181006 | 70 | 292 | 3.5 | 9.6 | 0.00 | 0.00 | 0.00 | 38 | 1009.6 |
| 20260507180506 | 70 | 317 | 3.5 | 9.6 | 0.00 | 0.00 | 0.00 | 39 | 1009.7 |
| 20260507180010 | 69 | 231 | 1.7 | 8.7 | 0.00 | 0.00 | 0.00 | 36 | 1009.7 |
| 20260507175508 | 70 | 300 | 2.6 | 8.7 | 0.00 | 0.00 | 0.00 | 38 | 1009.7 |
| 20260507175006 | 70 | 352 | 2.6 | 10.4 | 0.00 | 0.00 | 0.00 | 42 | 1009.8 |
| 20260507174510 | 68 | 279 | 4.3 | 10.4 | 0.00 | 0.00 | 0.00 | 39 | 1009.8 |
| 20260507174004 | 68 | 352 | 3.5 | 7.8 | 0.00 | 0.00 | 0.00 | 34 | 1009.9 |
| 20260507173505 | 68 | 143 | 1.7 | 7.0 | 0.00 | 0.00 | 0.00 | 36 | 1009.9 |
| 20260507173033 | 69 | 82 | 1.7 | 7.8 | 0.00 | 0.00 | 0.00 | 38 | 1009.9 |
| 20260507172506 | 67 | 261 | 1.7 | 8.7 | 0.00 | 0.00 | 0.00 | 38 | 1010.1 |
| 20260507172006 | 67 | 336 | 3.5 | 8.7 | 0.00 | 0.00 | 0.00 | 38 | 1010.1 |
| 20260507171519 | 67 | 294 | 2.6 | 7.8 | 0.00 | 0.00 | 0.00 | 37 | 1010.2 |
| 20260507171005 | 68 | 279 | 0.9 | 7.0 | 0.00 | 0.00 | 0.00 | 42 | 1010.2 |
| 20260507170507 | 67 | 266 | 1.7 | 7.0 | 0.00 | 0.00 | 0.00 | 43 | 1010.2 |
| 20260507170017 | 67 | 351 | 1.7 | 7.0 | 0.00 | 0.00 | 0.00 | 41 | 1010.4 |
| 20260507165505 | 67 | 122 | 1.7 | 10.4 | 0.00 | 0.00 | 0.00 | 37 | 1010.4 |
| 20260507165006 | 66 | 44 | 2.6 | 10.4 | 0.00 | 0.00 | 0.00 | 42 | 1010.6 |
| 20260507164515 | 65 | 229 | 1.7 | 8.7 | 0.00 | 0.00 | 0.00 | 40 | 1010.6 |
| 20260507164007 | 66 | 247 | 2.6 | 8.7 | 0.00 | 0.00 | 0.00 | 38 | 1010.7 |
| 20260507163507 | 66 | 276 | 2.6 | 7.8 | 0.00 | 0.00 | 0.00 | 38 | 1010.7 |
| 20260507163012 | 66 | 281 | 1.7 | 7.8 | 0.00 | 0.00 | 0.00 | 39 | 1010.9 |
| 20260507162508 | 65 | 318 | 0.9 | 4.3 | 0.00 | 0.00 | 0.00 | 44 | 1010.8 |
| 20260507162006 | 65 | 38 | 0.0 | 6.1 | 0.00 | 0.00 | 0.00 | 46 | 1010.9 |
| 20260507161519 | 64 | 195 | 1.7 | 7.8 | 0.00 | 0.00 | 0.00 | 45 | 1010.9 |
| 20260507161006 | 64 | 212 | 1.7 | 7.8 | 0.00 | 0.00 | 0.00 | 42 | 1011.0 |
| 20260507160506 | 63 | 223 | 1.7 | 7.0 | 0.00 | 0.00 | 0.00 | 46 | 1011.0 |
| 20260507160024 | 63 | 217 | 0.9 | 4.3 | 0.00 | 0.00 | 0.00 | 45 | 1011.1 |
| 20260507155508 | 63 | 305 | 0.0 | 4.3 | 0.00 | 0.00 | 0.00 | 47 | 1011.2 |
| 20260507155009 | 62 | 232 | 1.7 | 5.2 | 0.00 | 0.00 | 0.00 | 49 | 1011.3 |
| 20260507154524 | 61 | 276 | 1.7 | 7.0 | 0.00 | 0.00 | 0.00 | 52 | 1011.3 |
| 20260507154007 | 62 | 281 | 1.7 | 7.0 | 0.00 | 0.00 | 0.00 | 51 | 1011.4 |
| 20260507153504 | 61 | 254 | 0.0 | 4.3 | 0.00 | 0.00 | 0.00 | 53 | 1011.4 |
| 20260507153014 | 61 | 333 | 1.7 | 7.0 | 0.00 | 0.00 | 0.00 | 53 | 1011.5 |
| 20260507152508 | 60 | 263 | 0.9 | 7.0 | 0.00 | 0.00 | 0.00 | 53 | 1011.5 |
| 20260507152006 | 60 | 259 | 0.9 | 5.2 | 0.00 | 0.00 | 0.00 | 54 | 1011.6 |
| 20260507151519 | 59 | 254 | 0.9 | 6.1 | 0.00 | 0.00 | 0.00 | 58 | 1011.5 |
| 20260507151004 | 59 | 281 | 1.7 | 6.1 | 0.00 | 0.00 | 0.00 | 55 | 1011.6 |
| 20260507150509 | 59 | 324 | 0.9 | 7.8 | 0.00 | 0.00 | 0.00 | 58 | 1011.6 |
| 20260507150019 | 58 | 306 | 2.6 | 9.6 | 0.00 | 0.00 | 0.00 | 57 | 1011.6 |
| 20260507145509 | 58 | 260 | 2.6 | 9.6 | 0.00 | 0.00 | 0.00 | 56 | 1011.7 |
| 20260507145007 | 58 | 301 | 1.7 | 8.7 | 0.00 | 0.00 | 0.00 | 57 | 1011.8 |
| 20260507144518 | 58 | 219 | 1.7 | 7.0 | 0.00 | 0.00 | 0.00 | 59 | 1011.8 |
| 20260507144010 | 57 | 319 | 1.7 | 6.1 | 0.00 | 0.00 | 0.00 | 58 | 1011.8 |
| 20260507143505 | 57 | 303 | 1.7 | 7.0 | 0.00 | 0.00 | 0.00 | 59 | 1011.8 |
| 20260507143027 | 55 | 234 | 1.7 | 7.0 | 0.00 | 0.00 | 0.00 | 60 | 1011.8 |
| 20260507142507 | 55 | 243 | 0.9 | 5.2 | 0.00 | 0.00 | 0.00 | 63 | 1011.9 |
| 20260507142012 | 54 | 327 | 0.9 | 7.0 | 0.00 | 0.00 | 0.00 | 64 | 1011.9 |
| 20260507141517 | 55 | 276 | 1.7 | 7.8 | 0.00 | 0.00 | 0.00 | 63 | 1012.0 |
| 20260507141008 | 54 | 63 | 1.7 | 7.8 | 0.00 | 0.00 | 0.00 | 65 | 1012.0 |
| 20260507140507 | 54 | 257 | 0.0 | 7.0 | 0.00 | 0.00 | 0.00 | 68 | 1012.1 |
| 20260507140022 | 54 | 306 | 0.9 | 7.0 | 0.00 | 0.00 | 0.00 | 66 | 1012.2 |
| 20260507135506 | 53 | 305 | 0.9 | 6.1 | 0.00 | 0.00 | 0.00 | 66 | 1012.2 |
| 20260507135005 | 53 | 321 | 0.0 | 5.2 | 0.00 | 0.00 | 0.00 | 68 | 1012.2 |
| 20260507134527 | 52 | 298 | 0.0 | 5.2 | 0.00 | 0.00 | 0.00 | 69 | 1012.2 |
| 20260507134010 | 51 | 263 | 1.7 | 7.0 | 0.00 | 0.00 | 0.00 | 69 | 1012.2 |
| 20260507133506 | 51 | 244 | 1.7 | 7.0 | 0.00 | 0.00 | 0.00 | 70 | 1012.2 |